Location: Chilton Park
(37.7711°N, 100.0276°W)
Time: 19:10:52
(UTC+00:00)

CZ-2C R/B - Pass Details

Date: 08 December 2021
Orbit: 704 x 907 km, 98.1° (Epoch: 16 January)

Event Time Altitude Azimuth Distance (km) Brightness Sun altitude
Rises 13:02:05 0° 4° (N) 3,173 6.0 -8.2°
Reaches altitude 10° 13:04:24 10° 358° (N) 2,270 5.2 -7.7°
Maximum altitude 13:09:07 44° 288° (WNW) 1,066 3.3 -6.9°
Drops below altitude 10° 13:14:03 10° 217° (SW) 2,375 5.4 -6.0°
Sets 13:16:32 0° 211° (SSW) 3,335 6.2 -5.6°
